Total_Precipitation_Accumulation
0.00 0.01 0.03 0.07 0.20 0.08 0.00 0.00 0.00 0.00 0.00 0.00 0.00 0.00 0.00 0.00 0.01 0.05 0.01 0.00 0.00 0.00 0.00 0.02 0.06 0.07 0.07 0.05 0.04 0.11 0.11 0.04 0.03 0.04 0.03 0.03 0.04 0.05 0.05 0.04 0.02 0.01 0.01 0.02 0.08 0.12 0.07 0.06 0.08
0.00 0.00 0.03 0.15 0.19 0.02 0.00 0.00 0.00 0.00 0.00 0.00 0.00 0.00 0.00 0.00 0.00 0.00 0.00 0.00 0.00 0.00 0.00 0.02 0.04 0.08 0.08 0.06 0.08 0.21 0.20 0.11 0.06 0.04 0.03 0.02 0.03 0.08 0.15 0.14 0.04 0.01 0.01 0.01 0.06 0.10 0.06 0.05 0.11
0.00 0.01 0.04 0.18 0.10 0.01 0.00 0.00 0.00 0.00 0.00 0.00 0.00 0.00 0.00 0.00 0.00 0.00 0.00 0.00 0.00 0.00 0.02 0.10 0.12 0.10 0.08 0.09 0.18 0.32 0.27 0.20 0.09 0.03 0.01 0.01 0.03 0.06 0.14 0.10 0.05 0.01 0.00 0.01 0.05 0.07 0.04 0.03 0.04
0.00 0.02 0.12 0.19 0.05 0.00 0.00 0.00 0.00 0.00 0.00 0.00 0.00 0.00 0.00 0.00 0.00 0.00 0.00 0.00 0.00 0.00 0.02 0.07 0.11 0.09 0.09 0.15 0.26 0.29 0.29 0.31 0.15 0.03 0.01 0.05 0.06 0.07 0.11 0.10 0.04 0.01 0.01 0.01 0.01 0.03 0.03 0.02 0.01
0.03 0.08 0.24 0.27 0.04 0.00 0.00 0.00 0.00 0.00 0.00 0.00 0.00 0.00 0.00 0.00 0.00 0.00 0.00 0.00 0.00 0.00 0.02 0.03 0.11 0.11 0.11 0.17 0.24 0.23 0.24 0.31 0.22 0.05 0.06 0.09 0.06 0.06 0.09 0.11 0.04 0.01 0.00 0.00 0.00 0.02 0.03 0.03 0.02
0.04 0.14 0.34 0.35 0.06 0.00 0.00 0.00 0.00 0.00 0.00 0.00 0.00 0.00 0.00 0.00 0.00 0.00 0.00 0.00 0.00 0.00 0.01 0.03 0.07 0.07 0.09 0.14 0.20 0.17 0.19 0.24 0.18 0.08 0.07 0.06 0.06 0.06 0.09 0.06 0.02 0.00 0.00 0.00 0.00 0.03 0.03 0.02 0.01
0.05 0.13 0.29 0.20 0.02 0.00 0.00 0.00 0.00 0.00 0.00 0.00 0.00 0.00 0.00 0.00 0.00 0.00 0.00 0.00 0.02 0.02 0.01 0.01 0.02 0.02 0.03 0.07 0.13 0.16 0.18 0.18 0.10 0.06 0.03 0.05 0.07 0.05 0.04 0.01 0.00 0.00 0.00 0.00 0.01 0.02 0.02 0.00 0.00
0.01 0.05 0.14 0.10 0.02 0.00 0.00 0.00 0.00 0.00 0.00 0.00 0.00 0.00 0.00 0.00 0.00 0.00 0.01 0.02 0.03 0.02 0.01 0.00 0.01 0.01 0.02 0.02 0.06 0.11 0.14 0.14 0.09 0.06 0.05 0.06 0.05 0.03 0.02 0.00 0.00 0.00 0.00 0.00 0.00 0.01 0.01 0.00 0.00
0.02 0.03 0.08 0.11 0.04 0.01 0.00 0.00 0.00 0.00 0.00 0.00 0.00 0.00 0.00 0.00 0.00 0.00 0.00 0.03 0.04 0.03 0.01 0.01 0.01 0.00 0.02 0.05 0.06 0.10 0.11 0.10 0.07 0.05 0.06 0.07 0.04 0.05 0.06 0.01 0.00 0.00 0.00 0.00 0.01 0.01 0.01 0.00 0.00
0.04 0.05 0.06 0.16 0.09 0.02 0.01 0.00 0.00 0.00 0.00 0.00 0.00 0.00 0.00 0.00 0.00 0.00 0.00 0.01 0.02 0.04 0.05 0.03 0.00 0.00 0.02 0.09 0.22 0.33 0.20 0.12 0.06 0.03 0.03 0.10 0.06 0.09 0.08 0.01 0.00 0.01 0.00 0.00 0.01 0.01 0.00 0.00 0.00
0.02 0.05 0.04 0.07 0.07 0.02 0.01 0.00 0.00 0.00 0.00 0.00 0.00 0.00 0.00 0.00 0.00 0.00 0.00 0.00 0.00 0.01 0.03 0.05 0.02 0.00 0.01 0.07 0.21 0.34 0.35 0.25 0.20 0.04 0.02 0.07 0.03 0.02 0.03 0.01 0.02 0.03 0.00 0.00 0.00 0.00 0.00 0.00 0.00
0.01 0.02 0.02 0.01 0.02 0.02 0.01 0.00 0.00 0.00 0.00 0.00 0.00 0.00 0.00 0.00 0.00 0.00 0.00 0.00 0.00 0.00 0.00 0.02 0.03 0.00 0.00 0.01 0.02 0.07 0.12 0.12 0.13 0.06 0.02 0.02 0.01 0.00 0.00 0.00 0.01 0.01 0.00 0.00 0.00 0.00 0.00 0.00 0.00
0.02 0.01 0.01 0.00 0.01 0.02 0.01 0.00 0.00 0.00 0.00 0.00 0.00 0.00 0.00 0.00 0.00 0.00 0.00 0.00 0.00 0.00 0.00 0.00 0.01 0.01 0.00 0.00 0.00 0.01 0.02 0.03 0.04 0.05 0.06 0.02 0.00 0.00 0.00 0.00 0.00 0.00 0.00 0.00 0.00 0.00 0.00 0.00 0.00
0.01 0.01 0.01 0.02 0.02 0.01 0.01 0.00 0.00 0.00 0.00 0.00 0.00 0.00 0.00 0.00 0.00 0.00 0.00 0.00 0.00 0.00 0.00 0.00 0.00 0.01 0.00 0.00 0.00 0.00 0.01 0.01 0.01 0.01 0.03 0.02 0.00 0.00 0.00 0.00 0.00 0.00 0.00 0.00 0.00 0.00 0.00 0.00 0.00
0.00 0.00 0.00 0.00 0.00 0.00 0.00 0.00 0.00 0.01 0.01 0.01 0.00 0.00 0.00 0.00 0.00 0.00 0.00 0.00 0.00 0.00 0.00 0.00 0.00 0.01 0.00 0.01 0.01 0.00 0.00 0.01 0.01 0.01 0.01 0.01 0.00 0.00 0.00 0.00 0.00 0.00 0.00 0.00 0.00 0.00 0.00 0.00 0.00
0.00 0.00 0.01 0.02 0.01 0.01 0.01 0.00 0.01 0.01 0.02 0.02 0.03 0.01 0.00 0.00 0.00 0.00 0.00 0.00 0.00 0.00 0.00 0.00 0.00 0.00 0.00 0.01 0.01 0.01 0.01 0.02 0.01 0.02 0.01 0.01 0.01 0.00 0.00 0.00 0.00 0.00 0.00 0.00 0.00 0.00 0.00 0.00 0.00
0.01 0.02 0.03 0.03 0.02 0.03 0.03 0.03 0.04 0.04 0.04 0.05 0.05 0.02 0.00 0.00 0.00 0.00 0.00 0.00 0.00 0.00 0.00 0.00 0.00 0.01 0.01 0.02 0.03 0.05 0.09 0.11 0.09 0.08 0.05 0.06 0.05 0.03 0.01 0.00 0.01 0.01 0.00 0.00 0.01 0.01 0.00 0.00 0.00
0.09 0.05 0.05 0.05 0.04 0.03 0.04 0.04 0.05 0.05 0.03 0.03 0.03 0.01 0.01 0.00 0.00 0.00 0.00 0.00 0.00 0.00 0.00 0.00 0.01 0.02 0.04 0.06 0.08 0.19 0.26 0.26 0.29 0.25 0.13 0.14 0.13 0.10 0.07 0.03 0.03 0.02 0.01 0.04 0.04 0.06 0.04 0.02 0.01
0.06 0.04 0.04 0.06 0.07 0.06 0.05 0.04 0.04 0.04 0.03 0.02 0.02 0.02 0.01 0.01 0.00 0.00 0.00 0.00 0.00 0.00 0.00 0.00 0.01 0.03 0.07 0.09 0.12 0.27 0.47 0.43 0.46 0.42 0.25 0.22 0.26 0.26 0.22 0.13 0.06 0.03 0.03 0.04 0.12 0.25 0.28 0.17 0.04
0.05 0.06 0.05 0.05 0.04 0.05 0.05 0.04 0.03 0.04 0.05 0.04 0.03 0.02 0.01 0.01 0.00 0.00 0.00 0.00 0.00 0.00 0.00 0.00 0.01 0.04 0.06 0.08 0.10 0.18 0.24 0.15 0.20 0.28 0.31 0.26 0.23 0.27 0.29 0.28 0.20 0.10 0.09 0.15 0.26 0.41 0.50 0.33 0.13
0.06 0.08 0.10 0.10 0.06 0.04 0.04 0.03 0.01 0.02 0.03 0.03 0.03 0.02 0.01 0.01 0.00 0.00 0.00 0.00 0.00 0.00 0.00 0.00 0.01 0.05 0.07 0.06 0.06 0.08 0.10 0.13 0.24 0.27 0.32 0.31 0.25 0.22 0.23 0.31 0.30 0.23 0.18 0.23 0.25 0.41 0.60 0.48 0.30
0.06 0.05 0.06 0.09 0.13 0.12 0.13 0.13 0.04 0.03 0.04 0.03 0.03 0.03 0.02 0.01 0.01 0.01 0.01 0.00 0.00 0.00 0.00 0.00 0.02 0.04 0.04 0.03 0.04 0.07 0.10 0.17 0.19 0.23 0.24 0.16 0.15 0.15 0.15 0.23 0.29 0.32 0.29 0.34 0.34 0.40 0.56 0.64 0.53
0.02 0.01 0.03 0.06 0.11 0.09 0.08 0.12 0.05 0.04 0.06 0.06 0.04 0.03 0.02 0.01 0.02 0.03 0.03 0.03 0.02 0.02 0.01 0.01 0.02 0.03 0.01 0.02 0.04 0.08 0.09 0.12 0.14 0.14 0.12 0.13 0.11 0.08 0.08 0.16 0.18 0.21 0.26 0.37 0.53 0.60 0.63 0.64 0.53
0.01 0.02 0.05 0.08 0.10 0.06 0.05 0.07 0.05 0.03 0.03 0.02 0.02 0.02 0.02 0.03 0.07 0.11 0.11 0.11 0.10 0.08 0.07 0.04 0.03 0.01 0.01 0.01 0.01 0.03 0.06 0.11 0.12 0.08 0.07 0.08 0.11 0.13 0.15 0.19 0.15 0.11 0.16 0.26 0.40 0.54 0.65 0.69 0.62
0.01 0.04 0.09 0.11 0.11 0.08 0.06 0.10 0.08 0.03 0.01 0.01 0.01 0.01 0.03 0.06 0.12 0.20 0.22 0.22 0.18 0.16 0.12 0.05 0.01 0.00 0.00 0.00 0.00 0.01 0.03 0.06 0.08 0.07 0.05 0.04 0.05 0.07 0.11 0.22 0.29 0.27 0.25 0.28 0.33 0.41 0.45 0.53 0.64
0.02 0.06 0.15 0.17 0.14 0.11 0.07 0.09 0.07 0.06 0.03 0.02 0.01 0.02 0.06 0.12 0.17 0.19 0.18 0.19 0.17 0.12 0.06 0.02 0.00 0.00 0.00 0.00 0.00 0.01 0.02 0.02 0.02 0.02 0.03 0.03 0.03 0.02 0.02 0.06 0.16 0.27 0.34 0.34 0.33 0.27 0.28 0.38 0.47
0.04 0.05 0.08 0.15 0.12 0.08 0.06 0.08 0.08 0.07 0.07 0.05 0.04 0.06 0.12 0.24 0.31 0.29 0.29 0.30 0.19 0.08 0.03 0.01 0.00 0.00 0.00 0.00 0.00 0.00 0.01 0.00 0.01 0.01 0.03 0.02 0.01 0.01 0.00 0.03 0.05 0.08 0.11 0.14 0.17 0.19 0.23 0.24 0.35
0.07 0.11 0.14 0.23 0.24 0.16 0.13 0.15 0.16 0.16 0.17 0.17 0.20 0.25 0.29 0.38 0.46 0.51 0.55 0.46 0.20 0.06 0.02 0.01 0.00 0.00 0.00 0.00 0.00 0.00 0.00 0.00 0.00 0.01 0.02 0.01 0.01 0.01 0.00 0.00 0.01 0.01 0.02 0.04 0.09 0.15 0.22 0.24 0.27
0.11 0.17 0.21 0.27 0.30 0.30 0.29 0.34 0.32 0.35 0.38 0.44 0.49 0.44 0.37 0.41 0.45 0.53 0.54 0.39 0.16 0.05 0.02 0.01 0.00 0.00 0.00 0.00 0.00 0.01 0.01 0.01 0.01 0.01 0.01 0.01 0.01 0.01 0.00 0.00 0.01 0.02 0.02 0.03 0.06 0.08 0.10 0.13 0.17
0.16 0.24 0.36 0.44 0.34 0.32 0.31 0.38 0.33 0.28 0.29 0.35 0.43 0.33 0.20 0.19 0.20 0.21 0.19 0.14 0.09 0.05 0.02 0.01 0.01 0.01 0.02 0.02 0.02 0.02 0.02 0.03 0.02 0.02 0.01 0.01 0.00 0.00 0.01 0.02 0.02 0.01 0.03 0.04 0.07 0.08 0.09 0.12 0.15